Location: Bridalveil Moraine
(37.7171°N, 119.6568°W)
Time: 17:37:26
(UTC+00:00)

Daily predictions for brighter satellites

Satellite Brightness Start Highest point End
(mag) Time Altitude Azimuth Time Altitude Azimuth Time Altitude Azimuth
DMSP B5D2-2 4.1 12:00:29 10° S 12:05:44 73° WSW 12:11:01 10° NNW
Cosmos-2242 3.2 12:02:06 10° N 12:06:26 79° E 12:10:42 10° S
Cosmos 1844 Rocket 4.2 12:02:15 10° WSW 12:06:27 22° NW 12:10:42 10° N
USA 234 3.7 12:00:15 10° SE 12:06:45 73° NE 12:13:17 10° NW
ATLAS 5 CENTAUR R/B 1.0 12:05:29 10° SSW 12:08:42 70° ESE 12:12:06 10° NE
Cosmos 1515 4.2 12:05:23 10° N 12:08:48 58° E 12:12:13 10° SSE
